www.pogodaiklimat.ru

Погода и климат >> Архив погоды >> Сейшелы >> Seychelles


АРХИВ ПОГОДЫ в Seychelles

Время (UTC), дата Ветер
(напр.,м/с)
 
Видим.   Явления Облачность Т
(С)
Тd
(С)
f
(%)
Тe
(С)
Тes
(С)
Комфортность P
(гПа)
Po
(гПа)
Тmin
(С)
Tmax
(С)
R
(мм)
R24
(мм)
S
(см)
06 23.04 СВ 2 45 км 3/0
[]
+31.6 +25.6 71 +47 +59 опасность
перегрева
1012.8 1013.0
09 23.04 СВ 2 45 км 5 баллов +31.4 +26.7 76 +48 +59 опасность
перегрева
1010.4 1010.0
12 23.04 СВ 1 40 км 5 баллов +30.9 +26.3 77 +47 +51 опасность
перегрева
1009.4 1009.0
15 23.04 Ю 1 40 км 1 балл +28.8 +25.0 80 +42 +42 опасность
перегрева
1010.8 1011.0
21 23.04 Ю 1 40 км 3 балла +28.0 +25.3 85 +41 +41 опасность
перегрева
1010.8 1011.0
00 24.04 С 1 40 км 3 балла +28.0 +24.9 83 +40 +40 очень
душно
1010.1 1010.0
03 24.04 СВ 1 40 км 6 баллов +28.9 +24.9 79 +41 +42 опасность
перегрева
1011.2 1011.0
06 24.04 СЗ 1 45 км 9/0
[]
+30.6 +26.0 77 +46 +55 опасность
перегрева
1012.7 1013.0
09 24.04 В 1 25 км 9/0
[]
+30.9 +23.6 65 +42 +54 опасность
перегрева
1011.4 1011.0
12 24.04 С 1 40 км 9/0
[]
+30.5 +25.0 73 +44 +48 опасность
перегрева
1010.3 1010.0
15 24.04 Ю 1 40 км 9 баллов +27.7 +24.7 84 +39 +39 очень
душно
1010.9 1011.0
18 24.04 В 1 40 км 4/0
[]
+27.7 +24.6 83 +39 +39 очень
душно
1012.6 1013.0
21 24.04 ЮВ 1 40 км 1 балл +27.6 +24.3 82 +39 +39 очень
душно
1011.8 1012.0
00 25.04 Ю 3 40 км 3/0
[]
+28.3 +24.9 82 +41 +41 опасность
перегрева
1010.6 1011.0
03 25.04 Ю 2 40 км 4/0
[]
+28.8 +25.4 82 +42 +43 опасность
перегрева
1011.3 1011.0
06 25.04 ЮВ 3 40 км 5/0
[]
+30.8 +25.6 74 +45 +54 опасность
перегрева
1012.6 1013.0
09 25.04 Ю 2 40 км 8/0
[]
+29.4 +26.0 82 +44 +56 опасность
перегрева
1010.5 1011.0
12 25.04 Ю 3 40 км 9/0
[]
+28.9 +25.1 80 +42 +45 опасность
перегрева
1009.3 1009.0
15 25.04 ЮВ 2 40 км 3 балла +28.8 +25.3 81 +42 +42 опасность
перегрева
1010.3 1010.0
18 25.04 ЮВ 2 40 км 3/0
[]
+28.5 +24.8 80 +41 +41 опасность
перегрева
1012.0 1012.0
21 25.04 Ю 2 30 км 3/0
[]
+28.5 +25.1 82 +41 +41 опасность
перегрева
1010.7 1011.0
00 26.04 Ю 2 30 км 5 баллов +28.3 +25.0 82 +41 +41 опасность
перегрева
1009.5 1010.0
03 26.04 Ю 1 45 км 6 баллов +28.1 +25.7 87 +42 +42 опасность
перегрева
1010.9 1011.0
09 26.04 В 2 40 км 8 баллов +31.9 +26.8 74 +49 +53 опасность
перегрева
1011.2 1011.0
12 26.04 В 2 40 км 9 баллов +30.4 +26.2 78 +46 +47 опасность
перегрева
1009.8 1010.0
15 26.04 З 1 40 км 9/0
[]
+27.3 +25.9 92 +41 +41 опасность
перегрева
1010.9 1011.0
18 26.04 СВ 2 45 км 5/0
[]
+29.3 +26.2 83 +44 +44 опасность
перегрева
1012.7 1013.0
21 26.04 СВ 1 40 км 3 балла +27.8 +26.4 92 +42 +42 опасность
перегрева
1010.9 1011.0
00 27.04 Ю 1 40 км 5 баллов +27.7 +25.9 90 +41 +41 опасность
перегрева
1010.1 1010.0
03 27.04 Ю 1 40 км 8 баллов +28.3 +26.2 88 +43 +43 опасность
перегрева
1011.8 1012.0
06 27.04 В 2 40 км 4/0
[]
+31.5 +26.8 76 +49 +59 опасность
перегрева
1013.5 1014.0
09 27.04 В 2 45 км 4 балла +32.4 +26.9 73 +50 +62 опасность
перегрева
1011.5 1012.0
12 27.04 В 2 40 км 6 баллов +31.7 +26.1 72 +47 +50 опасность
перегрева
1010.4 1010.0
15 27.04 В 3 40 км 8/0
[]
+29.2 +25.8 82 +44 +44 опасность
перегрева
1012.0 1012.0
18 27.04 Ю 1 40 км 4/0
[]
+28.1 +26.0 88 +42 +42 опасность
перегрева
1013.4 1013.0
21 27.04 Ю 1 40 км 5 баллов +28.6 +26.0 86 +43 +43 опасность
перегрева
1012.1 1012.0
00 28.04 ЮВ 2 40 км 6 баллов +28.3 +25.5 85 +42 +42 опасность
перегрева
1010.7 1011.0
03 28.04 Ю 2 45 км 3 балла +28.7 +25.0 80 +41 +42 опасность
перегрева
1012.3 1012.0
06 28.04 ЮВ 2 40 км 3/0
[]
+30.8 +25.2 72 +45 +56 опасность
перегрева
1012.8 1013.0
09 28.04 ЮВ 3 40 км 4 балла +31.7 +26.0 72 +47 +58 опасность
перегрева
1011.1 1011.0
12 28.04 ЮВ 2 40 км 6/0
[]
+30.9 +23.9 66 +42 +46 опасность
перегрева
1009.6 1010.0
15 28.04 ЮВ 2 40 км 5 баллов +29.3 +25.8 81 +43 +43 опасность
перегрева
1011.0 1011.0
18 28.04 Ю 2 40 км 5/0
[]
+28.9 +25.5 82 +43 +43 опасность
перегрева
1011.9 1012.0
21 28.04 ЮВ 3 40 км 4 балла +29.1 +25.3 80 +42 +42 опасность
перегрева
1011.3 1011.0
00 29.04 ЮВ 2 40 км 4/0
[]
+29.0 +24.9 79 +42 +42 опасность
перегрева
1010.3 1010.0
03 29.04 Ю 1 40 км 9/0
[]
+27.0 +25.0 89 +39 +39 очень
душно
1011.3 1011.0
06 29.04 ЮВ 3 30 км 9/0
[]
+30.2 +24.8 73 +43 +49 опасность
перегрева
1012.5 1013.0
09 29.04 ЮВ 3 40 км 9/0
[]
+29.3 +25.1 78 +42 +51 опасность
перегрева
1011.5 1012.0
12 29.04 Ю 2 20 км 9/0
[]
+28.1 +25.6 86 +41 +45 опасность
перегрева
1009.8 1010.0
15 29.04 Ю 2 20 км 10/0
[]
+27.5 +25.5 89 +40 +40 очень
душно
1010.6 1011.0
18 29.04 Ю 2 8000 м 9/0
[]
+27.0 +24.4 86 +38 +38 очень
душно
1012.6 1013.0
21 29.04 З 1 20 км 9/0
[]
+24.9 +24.0 95 +34 +34 очень
душно
1012.0 1012.0
00 30.04 ЮЗ 1 20 км 9/0
[]
+25.6 +24.4 93 +36 +36 очень
душно
1010.2 1010.0

 

Местоположение метеостанции Seychelles (Сейшелы): широта -4.67 долгота 55.52 высота над уровнем моря 3 м.

В архиве по умолчанию представлена погода в Seychelles за последнюю неделю. Архивные данные за месяц целиком и за предыдущие месяцы, начиная с января 2011 года, Вы можете получить, выбрав интересующий диапазон дат из раскрывающегося списка и нажав кнопку "Ввод!".

Внимание! Время в таблицах - всемирное. Для получения местного времени необходимо прибавить поправку, которая в Seychelles равна 4 ч.

Смотрите также архив погоды в соседних городах и на ближайших метеорологических станциях:

Погода в Agalega (Маврикий) (655 км)
Погода в Antsiranana (Мадагаскар) (1094 км)
Погода в Iles Glorieuses (Реюньон) (1190 км)
Погода в Sambava (Мадагаскар) (1219 км)
Погода в Serge-Frolow (Реюньон) (1243 км)
Погода в Fascene (Мадагаскар) (1244 км)
Погода в Antalaha (Мадагаскар) (1274 км)
Погода в Mogadiscio (Сомали) (1354 км)
Погода в Saint Brandon Saint Raphael (Маврикий) (1385 км)
Погода в Antsohihy (Мадагаскар) (1404 км)

Пояснения к столбцам:

Ветер - указаны скорость ветра в м/с - средняя за 10 мин, порывы в срок и между сроками (в фигурных скобках) и направление, откуда дует ветер: С - северный, СВ - северо-восточный, В - восточный, ЮВ - юго-восточный, Ю - южный, ЮЗ - юго-западный, З - западный, СЗ - северо-западный.
Видимость - горизонтальная дальность видимости в метрах или километрах. При видимости от 1 до 10 км при отсутствии осадков обычно наблюдается дымка, при ухудшении видимости до 1 км и менее - туман. В сухую погоду видимость может ухудшаться дымом, пылью или мглою.
Явления - указаны атмосферные явления, наблюдавшиеся в срок или в последний час перед сроком; фигурными скобками обозначены явления, наблюдавшиеся между сроками (за 1-3 часа до срока); квадратными скобками обозначены град или гололедные отложения с указанием их диаметра в мм.
Облачность - указаны через наклонную черту общая и нижняя облачность в баллах и высота нижней границы облаков в метрах; квадратными скобками обозначены формы облаков: Ci - перистые, Cs - перисто-слоистые, Cc - перисто-кучевые, Ac - высококучевые, As - высокослоистые, Sc - слоисто-кучевые, Ns - слоисто-дождевые, Cu - кучевые, Cb - кучево-дождевые. Подробнее классификацию облаков см. в Атласе облаков (PDF).
T - Температура воздуха - температура, измеренная на высоте 2 м над землей.
Td - Температура точки росы - температура, при понижении до которой содержащийся в воздухе водяной пар достигнет насыщения.
f - Относительная влажность воздуха - влажноcть воздуха, измеренная на высоте 2 м над землей.
Te - Эффективная температура - температура, которую ощущает одетый по сезону человек в тени. Характеристика душности погоды. При расчете учитывается влияние влажности воздуха и скорости ветра на теплоощущения человека.
Tes - Эффективная температура на солнце - температура, которую ощущает человек, с поправкой на солнечный нагрев. Характеристика знойности погоды. Зависит от высоты солнца над горизонтом, облачности и скорости ветра. Ночью, в пасмурную погоду, а также при ветре 12 м/с и более поправка равна нулю.
P - Атмосферное давление - приведенное к уровню моря атмосферное давление.
Po - Атмосферное давление - измеренное на уровне метеостанции атмосферное давление.
Tmin - Минимальная температура - минимум температуры воздуха на высоте 2 м над землей.
Tmax - Максимальная температура - максимум температуры воздуха на высоте 2 м над землей.
R - Количество осадков - Количество выпавших осадков за период времени, мм. При наведении курсора мыши на число - период времени, за который выпало указанное количество осадков.
R24 - Количество осадков - Количество выпавших осадков за 24 часа, мм.
S - Снежный покров - Высота снежного покрова, см. При наведении курсора мыши на число - состояние снежного покрова и степень покрытия местности в баллах.